| time (UTC) | temp F | wind direction | speed knots | gust knots | rain 1hr in | rain 24hr in | rain mn in | humidity % | barometer mb |
| 20260510055758 | 75 | 202 | 2.6 | 6.1 | 0.00 | 0.03 | 0.00 | 80 | 1008.3 |
| 20260510054806 | 75 | 161 | 2.6 | 7.8 | 0.00 | 0.03 | 0.00 | 79 | 1008.3 |
| 20260510053754 | 75 | 156 | 2.6 | 7.8 | 0.00 | 0.03 | 0.00 | 79 | 1008.4 |
| 20260510052757 | 76 | 139 | 2.6 | 7.0 | 0.00 | 0.03 | 0.00 | 79 | 1008.4 |
| 20260510051741 | 76 | 166 | 2.6 | 7.0 | 0.00 | 0.03 | 0.00 | 79 | 1008.4 |
| 20260510050723 | 76 | 151 | 1.7 | 7.0 | 0.00 | 0.03 | 0.00 | 79 | 1008.3 |
| 20260510045652 | 76 | 157 | 1.7 | 6.1 | 0.00 | 0.03 | 0.03 | 79 | 1008.2 |
| 20260510043608 | 77 | 163 | 1.7 | 4.3 | 0.00 | 0.03 | 0.03 | 79 | 1008.2 |
| 20260510042617 | 77 | 123 | 1.7 | 4.3 | 0.00 | 0.03 | 0.03 | 79 | 1008.2 |
| 20260510041550 | 77 | 190 | 1.7 | 4.3 | 0.00 | 0.03 | 0.03 | 78 | 1008.3 |
| 20260510035422 | 77 | 173 | 1.7 | 4.3 | 0.00 | 0.03 | 0.03 | 78 | 1008.1 |
| 20260510034418 | 77 | 165 | 1.7 | 4.3 | 0.00 | 0.03 | 0.03 | 78 | 1008.0 |
| 20260510033421 | 77 | 159 | 1.7 | 4.3 | 0.00 | 0.03 | 0.03 | 78 | 1007.9 |
| 20260510032349 | 78 | 164 | 1.7 | 4.3 | 0.00 | 0.03 | 0.03 | 79 | 1007.9 |
| 20260510030226 | 78 | 157 | 0.9 | 3.5 | 0.00 | 0.03 | 0.03 | 79 | 1007.7 |
| 20260510025233 | 78 | 161 | 1.7 | 5.2 | 0.00 | 0.03 | 0.03 | 78 | 1007.5 |
| 20260510024202 | 79 | 173 | 2.6 | 7.0 | 0.00 | 0.03 | 0.03 | 77 | 1007.2 |
| 20260510023226 | 79 | 163 | 1.7 | 7.0 | 0.00 | 0.03 | 0.03 | 77 | 1007.1 |
| 20260510022234 | 79 | 153 | 0.9 | 6.1 | 0.00 | 0.03 | 0.03 | 75 | 1007.1 |
| 20260510021229 | 80 | 91 | 1.7 | 6.1 | 0.00 | 0.03 | 0.03 | 74 | 1007.1 |
| 20260510020209 | 80 | 157 | 0.9 | 4.3 | 0.00 | 0.03 | 0.03 | 72 | 1006.9 |
| 20260510015155 | 80 | 162 | 0.9 | 3.5 | 0.00 | 0.03 | 0.03 | 69 | 1006.8 |
| 20260510013014 | 81 | 144 | 0.9 | 3.5 | 0.00 | 0.03 | 0.03 | 63 | 1006.6 |
| 20260510012018 | 82 | 146 | 0.9 | 3.5 | 0.00 | 0.03 | 0.03 | 61 | 1006.6 |
| 20260510011037 | 82 | 129 | 0.9 | 4.3 | 0.00 | 0.03 | 0.03 | 59 | 1006.5 |
| 20260510010005 | 83 | 121 | 0.9 | 4.3 | 0.00 | 0.03 | 0.03 | 57 | 1006.4 |
| 20260510005023 | 83 | 179 | 1.7 | 5.2 | 0.00 | 0.03 | 0.03 | 57 | 1006.3 |
| 20260510003950 | 84 | 157 | 1.7 | 6.1 | 0.00 | 0.03 | 0.03 | 55 | 1006.3 |
| 20260510003005 | 84 | 125 | 1.7 | 7.8 | 0.00 | 0.03 | 0.03 | 53 | 1006.2 |
| 20260510002015 | 85 | 128 | 1.7 | 7.8 | 0.00 | 0.03 | 0.03 | 51 | 1006.1 |
| 20260510000943 | 86 | 124 | 1.7 | 7.0 | 0.00 | 0.03 | 0.03 | 49 | 1006.0 |
| 20260509235939 | 86 | 140 | 2.6 | 7.0 | 0.00 | 0.03 | 0.03 | 49 | 1006.0 |
| 20260509233834 | 87 | 129 | 2.6 | 8.7 | 0.00 | 0.03 | 0.03 | 47 | 1005.7 |
| 20260509232829 | 87 | 107 | 2.6 | 8.7 | 0.00 | 0.03 | 0.03 | 47 | 1005.7 |
| 20260509231815 | 88 | 101 | 4.3 | 8.7 | 0.00 | 0.03 | 0.03 | 48 | 1005.6 |
| 20260509230829 | 89 | 148 | 1.7 | 7.8 | 0.00 | 0.03 | 0.03 | 49 | 1005.6 |
| 20260509225813 | 90 | 123 | 1.7 | 7.0 | 0.00 | 0.03 | 0.03 | 51 | 1005.5 |
| 20260509224821 | 90 | 98 | 1.7 | 7.0 | 0.00 | 0.03 | 0.03 | 52 | 1005.5 |
| 20260509223845 | 90 | 79 | 0.9 | 5.2 | 0.00 | 0.03 | 0.03 | 52 | 1005.6 |
| 20260509221716 | 90 | 36 | 0.9 | 6.1 | 0.00 | 0.03 | 0.03 | 54 | 1005.5 |
| 20260509220648 | 89 | 117 | 0.9 | 5.2 | 0.00 | 0.03 | 0.03 | 55 | 1005.5 |
| 20260509215654 | 88 | 126 | 1.7 | 6.1 | 0.00 | 0.03 | 0.03 | 55 | 1005.5 |
| 20260509214712 | 87 | 136 | 1.7 | 6.1 | 0.00 | 0.03 | 0.03 | 56 | 1005.6 |
| 20260509213731 | 85 | 150 | 1.7 | 5.2 | 0.00 | 0.03 | 0.03 | 57 | 1005.8 |
| 20260509212732 | 84 | 144 | 3.5 | 12.2 | 0.00 | 0.03 | 0.03 | 57 | 1006.0 |
| 20260509210547 | 81 | 148 | 6.1 | 14.8 | 0.00 | 0.03 | 0.03 | 56 | 1006.4 |
| 20260509205551 | 87 | 119 | 4.3 | 14.8 | 0.00 | 0.03 | 0.03 | 47 | 1006.4 |
| 20260509204610 | 93 | 93 | 0.9 | 7.8 | 0.00 | 0.03 | 0.03 | 47 | 1006.5 |
| 20260509202444 | 93 | 294 | 2.6 | 7.8 | 0.00 | 0.03 | 0.03 | 49 | 1006.4 |
| 20260509201439 | 92 | 260 | 2.6 | 6.1 | 0.00 | 0.03 | 0.03 | 48 | 1006.6 |
| 20260509200411 | 92 | 269 | 0.9 | 5.2 | 0.00 | 0.03 | 0.03 | 50 | 1006.7 |
| 20260509195409 | 92 | 340 | 1.7 | 7.0 | 0.00 | 0.03 | 0.03 | 51 | 1006.7 |
| 20260509194336 | 92 | 246 | 1.7 | 8.7 | 0.00 | 0.03 | 0.03 | 50 | 1006.7 |
| 20260509193328 | 92 | 232 | 1.7 | 8.7 | 0.00 | 0.03 | 0.03 | 51 | 1007.0 |
| 20260509192322 | 91 | 257 | 2.6 | 7.0 | 0.00 | 0.03 | 0.03 | 53 | 1007.1 |
| 20260509191341 | 90 | 300 | 2.6 | 9.6 | 0.00 | 0.03 | 0.03 | 56 | 1007.1 |
| 20260509190316 | 91 | 17 | 0.9 | 9.6 | 0.00 | 0.03 | 0.03 | 54 | 1007.2 |
| 20260509185335 | 90 | 202 | 1.7 | 7.8 | 0.00 | 0.03 | 0.03 | 56 | 1007.5 |
| 20260509184310 | 89 | 187 | 1.7 | 8.7 | 0.00 | 0.03 | 0.03 | 57 | 1007.6 |
| 20260509183235 | 89 | 250 | 2.6 | 8.7 | 0.00 | 0.03 | 0.03 | 60 | 1007.9 |
| 20260509182218 | 88 | 173 | 0.9 | 7.0 | 0.00 | 0.03 | 0.03 | 59 | 1008.0 |
| 20260509181149 | 87 | 234 | 0.9 | 6.1 | 0.00 | 0.03 | 0.03 | 64 | 1008.1 |
| 20260509180137 | 88 | 267 | 0.9 | 6.1 | 0.00 | 0.03 | 0.03 | 63 | 1008.1 |
| 20260509175201 | 88 | 273 | 0.0 | 2.6 | 0.00 | 0.03 | 0.03 | 63 | 1008.3 |
| 20260509174207 | 87 | 348 | 0.9 | 4.3 | 0.00 | 0.03 | 0.03 | 65 | 1008.6 |
| 20260509173136 | 87 | 223 | 0.9 | 7.8 | 0.00 | 0.03 | 0.03 | 66 | 1008.6 |
| 20260509172134 | 86 | 197 | 1.7 | 7.8 | 0.00 | 0.03 | 0.03 | 68 | 1008.8 |
| 20260509171135 | 85 | 239 | 1.7 | 4.3 | 0.00 | 0.03 | 0.03 | 69 | 1008.7 |
| 20260509170114 | 85 | 238 | 0.9 | 5.2 | 0.00 | 0.03 | 0.03 | 71 | 1008.8 |
| 20260509162855 | 82 | 216 | 2.6 | 7.8 | 0.00 | 0.03 | 0.03 | 77 | 1008.9 |
| 20260509160749 | 80 | 273 | 1.7 | 7.0 | 0.00 | 0.03 | 0.03 | 83 | 1008.7 |
| 20260509155721 | 79 | 186 | 1.7 | 7.0 | 0.00 | 0.03 | 0.03 | 85 | 1008.9 |
| 20260509154703 | 78 | 242 | 0.9 | 5.2 | 0.00 | 0.03 | 0.03 | 90 | 1008.9 |
| 20260509153644 | 77 | 250 | 0.9 | 5.2 | 0.00 | 0.03 | 0.03 | 93 | 1009.0 |
| 20260509152634 | 75 | 242 | 2.6 | 7.8 | 0.00 | 0.03 | 0.03 | 94 | 1009.2 |
| 20260509151620 | 74 | 191 | 3.5 | 7.8 | 0.00 | 0.03 | 0.03 | 95 | 1009.2 |
| 20260509145453 | 73 | 159 | 2.6 | 7.8 | 0.00 | 0.03 | 0.03 | 95 | 1009.0 |
| 20260509144506 | 73 | 203 | 2.6 | 7.8 | 0.00 | 0.03 | 0.03 | 96 | 1008.7 |
| 20260509143510 | 73 | 195 | 0.9 | 7.0 | 0.00 | 0.03 | 0.03 | 96 | 1008.7 |
| 20260509142535 | 73 | 159 | 1.7 | 7.0 | 0.00 | 0.03 | 0.03 | 96 | 1008.4 |
| 20260509141535 | 73 | 189 | 2.6 | 7.8 | 0.00 | 0.03 | 0.03 | 96 | 1008.3 |
| 20260509140530 | 73 | 168 | 2.6 | 7.8 | 0.00 | 0.03 | 0.03 | 96 | 1008.2 |
| 20260509135509 | 73 | 168 | 0.0 | 2.6 | 0.00 | 0.03 | 0.03 | 96 | 1008.5 |
| 20260509134452 | 73 | 5 | 0.0 | 0.0 | 0.00 | 0.03 | 0.03 | 96 | 1008.6 |
| 20260509133504 | 73 | 5 | 0.0 | 1.7 | 0.00 | 0.03 | 0.03 | 96 | 1008.9 |
| 20260509132436 | 73 | 340 | 0.9 | 2.6 | 0.00 | 0.03 | 0.03 | 96 | 1009.0 |
| 20260509131459 | 73 | 19 | 0.0 | 4.3 | 0.00 | 0.03 | 0.03 | 96 | 1009.0 |
| 20260509130506 | 73 | 346 | 0.9 | 4.3 | 0.00 | 0.03 | 0.03 | 96 | 1008.6 |
| 20260509125444 | 73 | 308 | 0.9 | 3.5 | 0.00 | 0.03 | 0.03 | 96 | 1008.3 |
| 20260509124440 | 72 | 5 | 0.0 | 3.5 | 0.00 | 0.03 | 0.03 | 96 | 1008.4 |
| 20260509123413 | 72 | 5 | 0.0 | 0.9 | 0.00 | 0.03 | 0.03 | 96 | 1008.4 |
| 20260509121243 | 72 | 346 | 0.0 | 0.0 | 0.00 | 0.03 | 0.03 | 95 | 1008.5 |
| 20260509120243 | 72 | 346 | 0.0 | 0.9 | 0.00 | 0.03 | 0.03 | 95 | 1008.7 |
| 20260509115308 | 72 | 355 | 0.0 | 0.9 | 0.00 | 0.03 | 0.03 | 95 | 1008.6 |
| 20260509114317 | 72 | 319 | 0.0 | 3.5 | 0.00 | 0.03 | 0.03 | 95 | 1008.7 |
| 20260509113257 | 72 | 5 | 0.9 | 2.6 | 0.00 | 0.02 | 0.02 | 95 | 1009.3 |
| 20260509112251 | 72 | 41 | 0.0 | 6.1 | 0.00 | 0.02 | 0.02 | 95 | 1009.4 |
| 20260509111235 | 72 | 46 | 0.9 | 6.1 | 0.00 | 0.02 | 0.02 | 95 | 1009.4 |
| 20260509110205 | 72 | 43 | 0.9 | 4.3 | 0.00 | 0.02 | 0.02 | 95 | 1009.3 |
| 20260509105145 | 72 | 71 | 0.9 | 4.3 | 0.00 | 0.01 | 0.01 | 95 | 1009.5 |
| 20260509104135 | 73 | 5 | 0.0 | 2.6 | 0.00 | 0.01 | 0.01 | 95 | 1009.6 |
| 20260509101939 | 72 | 41 | 0.0 | 1.7 | 0.00 | 0.01 | 0.01 | 95 | 1009.0 |
| 20260509101002 | 72 | 96 | 0.0 | 0.9 | 0.00 | 0.01 | 0.01 | 95 | 1008.7 |
| 20260509095942 | 72 | 96 | 0.0 | 0.9 | 0.00 | 0.01 | 0.01 | 95 | 1008.5 |
| 20260509094957 | 72 | 96 | 0.0 | 1.7 | 0.00 | 0.01 | 0.01 | 95 | 1008.2 |
| 20260509094014 | 72 | 83 | 0.0 | 0.9 | 0.00 | 0.01 | 0.01 | 95 | 1008.1 |
| 20260509093014 | 72 | 83 | 0.0 | 0.0 | 0.00 | 0.01 | 0.01 | 94 | 1008.3 |
| 20260509092037 | 72 | 100 | 0.0 | 1.7 | 0.00 | 0.01 | 0.01 | 94 | 1008.0 |
| 20260509085920 | 72 | 80 | 0.0 | 0.0 | 0.00 | 0.00 | 0.00 | 94 | 1008.0 |
| 20260509084907 | 72 | 80 | 0.0 | 0.9 | 0.00 | 0.00 | 0.00 | 94 | 1008.2 |
| 20260509083850 | 73 | 49 | 0.0 | 1.7 | 0.00 | 0.00 | 0.00 | 94 | 1008.3 |
| 20260509082847 | 73 | 77 | 0.0 | 0.9 | 0.00 | 0.00 | 0.00 | 94 | 1008.4 |
| 20260509081840 | 73 | 76 | 0.0 | 0.0 | 0.00 | 0.00 | 0.00 | 94 | 1008.4 |
| 20260509075736 | 73 | 78 | 0.0 | 0.0 | 0.00 | 0.00 | 0.00 | 93 | 1008.3 |
| 20260509072431 | 73 | 125 | 0.0 | 3.5 | 0.00 | 0.00 | 0.00 | 93 | 1008.2 |
| 20260509071417 | 73 | 172 | 0.0 | 1.7 | 0.00 | 0.00 | 0.00 | 93 | 1008.3 |
| 20260509070442 | 73 | 180 | 0.0 | 2.6 | 0.00 | 0.00 | 0.00 | 93 | 1008.5 |
| 20260509065506 | 73 | 169 | 0.0 | 2.6 | 0.00 | 0.00 | 0.00 | 93 | 1008.6 |
| 20260509064440 | 73 | 150 | 1.7 | 6.1 | 0.00 | 0.00 | 0.00 | 93 | 1008.5 |
| 20260509063422 | 73 | 175 | 0.9 | 8.7 | 0.00 | 0.00 | 0.00 | 92 | 1008.2 |
| 20260509062445 | 73 | 182 | 1.7 | 8.7 | 0.00 | 0.00 | 0.00 | 92 | 1008.0 |
| 20260509061414 | 73 | 179 | 2.6 | 7.8 | 0.00 | 0.00 | 0.00 | 92 | 1008.1 |